Theta_e
291 290 289 289 289 289 288 288 284 280 280 284 284 287 289 289 289 289 288 292 293 292 293 293 294 295 295 295 296 296 297 297 299 299 300 300 300 301
290 289 288 288 287 287 287 286 286 284 280 285 285 286 288 288 289 288 288 292 291 292 293 293 293 293 293 294 294 294 295 295 296 298 298 299 300 300
289 288 287 287 285 285 285 285 284 284 281 283 285 286 284 284 286 287 288 288 288 291 292 292 292 292 292 293 292 292 293 294 295 295 297 298 299 299
289 288 286 287 283 284 283 284 283 284 282 281 283 283 282 284 285 285 287 288 286 289 291 291 291 291 291 291 292 292 292 293 293 294 294 295 296 297
288 286 285 284 283 283 283 283 282 285 283 282 280 282 283 284 284 285 285 285 286 289 289 289 289 290 291 291 291 291 292 292 292 293 293 293 294 295
288 287 285 284 283 283 283 282 283 282 281 280 280 280 281 283 283 281 281 283 282 285 287 287 288 289 289 289 289 290 291 291 292 292 292 291 292 293
288 287 286 287 288 287 284 282 282 281 281 280 279 279 279 279 279 280 280 280 281 282 282 283 284 284 285 287 288 289 290 291 291 291 292 292 292 291
285 284 284 286 287 288 288 287 285 281 280 280 279 278 278 279 279 279 279 277 275 281 281 280 283 282 284 285 288 289 290 290 290 291 291 291 289 290
285 284 284 286 284 283 285 285 285 285 284 281 278 278 278 279 279 278 277 277 277 280 280 278 282 280 284 285 287 289 289 289 290 290 291 290 289 289
285 282 282 283 284 283 282 282 281 281 282 282 279 279 279 279 279 279 278 277 278 279 280 277 280 280 282 284 287 288 288 289 289 290 291 290 289 289
284 283 283 283 287 286 282 280 279 279 282 283 283 282 282 282 282 278 275 275 274 275 279 278 278 279 280 281 284 287 288 288 289 290 291 290 289 288
283 284 286 284 287 285 281 279 277 277 277 278 278 279 279 279 281 279 277 273 274 273 276 276 277 278 276 278 282 284 285 287 289 290 290 290 289 287
282 282 283 287 286 285 283 280 279 278 277 276 275 276 277 277 277 278 278 276 274 274 278 278 276 277 277 277 280 283 283 285 286 288 290 290 290 289
282 281 281 286 286 284 281 282 280 278 275 275 275 275 275 275 276 277 278 278 278 277 279 278 276 276 275 275 277 281 283 285 286 286 287 289 289 289
282 283 286 285 284 281 282 280 278 276 275 274 274 274 274 275 276 277 278 277 277 278 279 278 277 276 276 276 276 278 281 283 285 285 286 287 287 288
283 283 280 279 279 278 278 278 278 276 275 273 273 274 275 275 275 276 275 276 275 275 277 278 277 276 275 276 277 278 281 279 283 283 285 287 287 288
281 280 278 278 278 277 277 277 277 276 274 274 273 274 275 275 275 276 275 275 273 273 273 275 276 277 277 277 276 279 280 279 281 281 283 284 285 286
280 279 276 277 277 277 276 276 276 275 275 275 274 274 274 274 274 275 275 274 272 273 273 274 274 273 274 276 281 277 278 278 280 280 282 282 282 284
279 278 277 277 277 277 276 276 275 275 275 274 274 273 274 275 275 274 274 273 272 272 273 273 273 271 267 267 274 282 277 278 278 278 280 282 281 282
279 278 277 278 277 277 276 276 275 275 274 274 274 273 272 273 273 272 272 271 271 272 271 272 272 271 269 268 270 275 281 277 276 276 278 281 282 283
279 278 278 278 277 277 276 276 274 273 273 273 272 271 269 271 270 271 271 270 270 271 270 270 272 274 274 274 270 271 274 279 279 277 278 278 277 278
279 278 278 278 277 276 275 273 272 271 271 271 268 267 266 271 270 270 270 270 270 271 270 272 273 273 272 271 269 269 271 273 277 279 281 280 277 274
279 278 278 277 276 276 275 273 272 271 270 269 269 268 261 268 271 271 270 270 271 270 270 269 271 272 271 271 269 269 270 270 271 273 276 280 281 281
Wind_Speed
7 6 6 4 4 4 4 3 2 2 2 3 3 3 7 7 11 10 11 20 24 24 24 27 29 30 29 31 31 31 32 32 33 33 33 32 32 32
5 7 6 4 5 4 4 4 3 2 1 1 3 4 8 7 12 11 11 19 21 22 23 26 28 29 30 32 32 32 32 32 32 32 33 34 33 33
6 7 6 5 4 4 3 3 3 2 1 3 3 4 4 8 10 10 10 9 11 23 23 26 26 29 30 30 32 32 32 31 32 33 34 35 34 33
6 6 6 5 5 4 3 4 3 2 1 2 3 3 5 7 8 10 10 9 10 18 24 23 26 29 29 30 30 29 29 29 31 32 34 34 34 33
6 6 5 5 5 3 3 3 2 2 1 1 3 2 4 5 9 8 11 11 9 22 19 22 26 28 28 28 29 28 28 31 32 31 31 32 33 32
6 5 5 5 5 4 4 3 3 2 1 2 3 4 3 8 6 9 11 10 11 11 10 18 24 27 26 28 28 29 29 31 32 32 35 34 34 32
6 5 5 7 8 5 2 3 4 3 2 3 3 3 5 7 10 9 10 12 13 3 12 10 12 12 13 20 24 31 32 32 33 35 35 36 34 29
7 5 4 7 6 7 7 7 5 3 4 2 3 4 6 8 8 9 9 11 8 3 14 12 9 13 13 15 31 32 31 33 35 35 34 32 30 30
6 5 5 3 3 4 4 6 7 6 5 1 3 4 5 8 8 10 9 9 10 12 10 10 10 14 14 16 30 29 31 34 34 34 34 28 30 29
6 6 6 5 3 3 3 4 3 3 4 3 3 4 4 5 5 8 9 9 9 5 7 9 12 13 15 14 23 28 33 33 34 33 27 29 29 29
5 6 5 5 4 4 4 4 3 4 4 8 7 9 11 12 12 6 10 11 9 5 2 10 7 16 13 9 9 31 31 30 33 33 26 27 28 28
5 5 7 5 6 5 5 4 5 4 6 6 5 8 9 9 15 7 6 8 9 7 4 13 13 11 11 5 17 13 13 28 30 28 28 28 27 12
5 4 3 9 8 8 8 5 4 3 5 5 5 5 6 7 7 8 7 5 6 7 11 8 11 13 8 15 11 14 16 16 16 17 26 27 29 23
7 4 4 11 9 9 6 9 8 4 2 3 3 5 5 7 8 8 9 7 7 11 13 9 7 11 13 14 12 15 16 16 13 17 16 22 26 25
5 7 11 12 11 7 9 8 4 3 3 3 3 3 3 6 8 8 8 9 9 9 8 10 9 11 10 10 12 14 17 18 13 17 17 16 17 16
8 6 6 6 5 4 4 4 3 3 2 2 3 4 4 5 5 6 7 8 8 9 9 8 12 13 11 11 10 10 14 13 18 18 17 16 16 14
8 5 4 3 3 3 2 3 3 3 3 3 3 4 4 5 6 7 7 8 8 11 13 13 14 13 10 10 7 11 14 16 16 19 19 17 16 16
6 6 4 4 4 4 3 3 2 3 2 2 3 4 5 5 6 7 7 8 9 10 10 13 14 16 14 4 4 10 15 16 17 18 19 16 18 18
5 6 6 6 4 4 4 3 2 1 1 1 2 3 5 4 6 7 7 8 9 9 10 10 11 12 14 13 10 13 15 16 16 17 17 16 18 21
4 7 7 6 5 5 4 3 3 2 1 1 2 3 4 5 6 7 7 8 9 9 10 10 11 11 10 9 13 16 23 15 16 17 17 14 17 31
6 6 6 6 5 5 4 4 4 2 1 1 2 3 3 3 4 5 7 8 8 8 10 10 11 16 9 9 10 12 16 29 24 16 17 16 20 16
7 7 7 6 6 5 5 4 4 3 2 1 0 1 2 3 3 5 5 7 7 7 9 9 11 10 9 10 13 16 14 19 24 31 26 24 17 13
9 8 7 6 6 6 6 5 4 3 3 2 1 1 1 2 3 4 5 5 6 8 10 10 10 9 10 11 11 11 19 18 17 19 17 32 35 34
Wind_Direction
84 81 82 69 67 68 65 51 133 67 341 312 319 348 338 334 330 332 328 332 332 327 325 319 322 323 327 330 328 326 324 322 319 322 321 321 318 316
92 90 84 78 73 62 72 63 48 110 32 242 288 303 327 331 327 327 331 331 322 321 320 318 319 325 328 327 327 325 323 326 322 323 323 322 319 318
97 96 84 80 79 73 63 68 64 76 98 302 270 311 315 318 317 325 322 323 321 318 319 317 322 325 324 324 324 324 326 325 326 324 323 322 321 318
103 102 101 99 79 76 68 66 57 53 114 268 291 304 266 307 311 312 320 321 315 311 322 318 325 323 324 322 321 324 323 325 321 322 321 319 319 319
108 103 112 106 96 94 82 77 56 24 339 282 287 283 282 313 329 329 323 320 319 316 317 327 323 322 324 323 323 322 326 324 321 318 316 314 313 314
100 97 97 92 108 108 81 68 63 34 327 276 268 282 280 327 329 337 333 334 324 312 313 324 321 322 325 326 324 323 323 320 319 318 320 316 314 312
108 103 91 99 97 94 91 53 47 31 331 325 334 315 320 342 356 336 329 325 320 226 329 326 320 322 325 324 322 324 322 320 321 322 320 318 314 326
126 105 90 83 80 77 68 67 57 16 360 331 321 335 337 342 341 338 331 339 345 302 331 326 326 325 327 326 322 319 319 323 322 320 320 329 335 324
141 138 115 98 94 78 63 61 36 22 32 295 339 343 322 340 330 326 332 318 302 306 322 312 337 322 324 316 315 315 323 322 323 326 323 331 333 330
133 134 128 142 133 146 135 92 55 16 6 18 7 309 295 313 320 325 311 305 308 282 326 312 325 320 320 310 309 324 323 326 324 326 331 333 334 332
129 132 137 133 139 138 112 86 50 32 353 14 9 6 2 355 360 336 358 347 336 316 289 333 332 319 313 305 322 324 324 325 325 330 327 332 331 331
131 139 150 137 131 114 91 75 54 0 350 354 351 2 2 350 1 9 341 340 339 324 323 340 334 348 321 303 323 324 321 326 329 331 330 330 325 325
149 161 157 132 122 97 83 68 58 358 349 352 335 342 352 350 350 341 337 317 312 278 296 336 323 324 307 313 314 318 331 326 328 332 333 332 331 323
165 164 158 133 121 101 84 76 59 30 351 355 2 356 347 343 336 325 317 302 279 275 292 309 297 314 313 311 319 322 326 331 327 333 331 331 329 327
147 161 147 128 115 91 85 76 58 35 3 24 352 314 296 295 306 322 322 315 305 291 312 313 318 312 305 297 304 319 327 329 337 332 331 331 331 328
147 137 126 118 113 116 91 57 60 47 35 357 310 293 288 334 336 334 325 333 325 330 333 328 332 332 320 313 302 312 335 335 331 332 327 327 328 329
131 125 126 125 140 141 122 90 63 41 33 353 335 326 342 345 342 336 336 337 341 334 334 342 344 335 316 297 315 337 338 334 333 329 330 333 331 330
145 159 161 166 166 163 161 136 86 48 14 349 336 345 350 343 334 336 341 348 337 336 333 337 341 347 354 307 336 334 339 334 332 329 331 336 329 331
167 172 170 173 170 164 163 144 134 96 29 356 352 348 355 345 339 343 344 344 336 334 334 334 346 356 344 335 294 334 332 331 332 332 334 336 328 326
183 177 176 173 170 165 159 142 137 135 114 21 16 7 355 354 343 343 343 337 331 330 333 343 350 348 339 317 310 309 331 332 340 332 329 333 321 316
190 182 173 170 167 159 152 141 139 136 103 62 29 6 343 345 326 332 334 330 323 335 337 339 331 319 308 308 329 326 333 340 340 334 329 340 339 324
185 181 175 167 164 159 150 144 135 141 143 136 51 342 331 327 313 321 329 327 331 331 323 321 329 336 347 351 334 328 332 335 338 338 340 350 344 334
178 172 169 164 162 157 155 156 150 154 154 142 87 333 327 311 317 316 321 323 326 335 336 335 339 343 342 343 335 337 331 341 340 337 341 346 343 341